Location: R�dental
(50.2952°N, 11.0412°E)
Time: 04:43:30
(UTC+00:00)

Daily predictions for brighter satellites

Satellite Brightness Start Highest point End
(mag) Time Altitude Azimuth Time Altitude Azimuth Time Altitude Azimuth
Cosmos 1943 Rocket 4.4 01:56:19 19° ENE 01:56:19 19° ENE 01:58:37 10° E
ATLAS 2AS CENTAUR R/B 4.3 01:59:43 31° N 02:00:03 31° N 02:06:43 10° NE
SL-16 R/B 3.9 02:19:42 29° E 02:19:42 29° E 02:23:25 10° NE
ADEOS II 4.4 02:19:36 10° N 02:20:47 17° N 02:20:47 17° N
Cosmos 2369 Rocket 3.9 02:24:49 27° NNE 02:26:15 30° NE 02:31:15 10° ESE
IDEFIX/ARIANE 42P 4.3 02:21:56 10° NNE 02:24:45 29° NE 02:24:45 29° NE
Cosmos 2333 Rocket 3.9 02:55:44 24° N 02:55:44 24° N 02:58:34 10° NNE
USA 215 3.2 02:47:55 10° ENE 02:54:03 78° NNE 02:54:03 78° NNE
ADEOS 4.5 02:53:46 10° NNE 02:58:47 44° E 02:58:57 44° ESE
Meteor 2-10 Rocket 3.8 03:16:51 66° ENE 03:16:51 66° ENE 03:21:31 10° NNE
Cosmos 1934 Rocket 4.2 03:10:16 10° NNW 03:15:15 58° NNW 03:15:15 58° NNW
NOSS 3-1 (A) 4.3 03:19:35 51° SSW 03:19:35 51° SSW 03:26:31 10° SSE
Cosmos 2237 Rocket 3.1 03:19:53 38° NNW 03:19:53 38° NNW 03:23:49 10° NNE
CZ-4C R/B 2.8 03:21:54 46° NNW 03:21:54 46° NNW 03:27:35 10° NE
Cosmos 2221 4.5 03:19:42 13° SE 03:22:48 27° E 03:26:27 10° NNE
Cosmos 2219 Rocket 3.9 03:26:42 21° NNW 03:26:42 21° NNW 03:29:56 10° NNE
USA 267 4.4 03:23:44 10° SSE 03:26:50 26° S 03:26:50 26° S
Cosmos 1943 Rocket 2.0 03:37:57 67° NW 03:38:42 85° WSW 03:44:12 10° SSE
Cosmos 2360 Rocket 4.4 03:39:41 12° NNW 03:39:58 12° NNW 03:42:00 10° N
Meteor 1-31 Rocket 4.0 03:36:46 10° NNE 03:40:24 40° E 03:41:21 33° SE
Cosmos 1605 Rocket 3.8 03:36:23 10° NNW 03:42:38 77° W 03:48:45 10° S
Lacrosse 5 2.4 03:45:18 45° S 03:45:18 45° S 03:49:09 10° SE
NOSS 2-1 (C) 4.3 03:46:03 38° NNE 03:46:03 38° NNE 03:48:41 10° NE
CZ-4B R/B 4.1 03:42:57 10° NNE 03:46:23 35° E 03:48:09 22° SSE
NOSS 2-1 (D) 4.2 03:50:02 39° NNE 03:50:02 39° NNE 03:52:47 10° NE
ATLAS CENTAUR R/B 2.1 03:52:19 46° NNW 03:52:19 46° NNW 03:55:59 10° NNE
COSMOS 2428 4.4 03:52:41 18° NNW 03:52:41 18° NNW 03:56:27 10° N
STARLINK-1190 4.5 03:54:05 36° NE 03:54:05 36° NE 03:56:20 10° ENE
ATLAS 2AS CENTAUR R/B 4.1 03:47:08 14° NW 03:53:12 37° NNE 03:59:58 10° E
ALOS 4.0 03:51:05 10° NNE 03:55:17 32° E 03:59:27 10° SSE
PAYLOAD A 3.8 03:53:07 10° N 03:57:58 70° WNW 03:58:46 58° SW
Cosmos 1153 Rocket 4.3 03:52:37 10° N 03:58:49 87° W 04:04:57 10° S
MSX 3.9 03:53:48 10° N 03:59:22 55° WNW 04:00:17 49° W
CZ-2C R/B 2.4 03:54:28 10° NNE 03:59:41 79° WNW 04:01:40 38° SSW
SL-16 R/B 2.3 04:01:35 49° W 04:02:22 53° NW 04:07:56 10° NNE
Cosmos 2251 Rocket 3.6 04:03:08 51° WNW 04:03:32 52° WNW 04:08:45 10° NNE
ADEOS II 4.3 04:01:08 10° NNW 04:01:44 11° NNW 04:01:44 11° NNW
Cosmos 1356 Rocket 4.0 04:06:32 42° NNW 04:06:32 42° NNW 04:09:35 10° N
Cosmos 1869 4.3 04:02:19 10° SSE 04:06:08 46° E 04:09:56 10° NNE
IDEFIX/ARIANE 42P 3.5 04:01:47 10° N 04:05:34 31° NW 04:05:34 31° NW
Cosmos 1633 3.5 04:05:38 10° N 04:09:11 49° ENE 04:12:43 10° SSE
BREEZE-M DEB (TANK) 3.2 04:09:15 46° WSW 04:10:35 67° SSW 04:23:04 10° ESE
Cosmos 2369 Rocket 2.1 04:06:40 20° NW 04:10:44 64° WSW 04:16:21 10° SSE
H-2A R/B 2.6 04:06:33 10° NNE 04:10:58 81° ESE 04:15:05 12° SSW
Meteor PRIRODA 4.4 04:07:59 10° NNE 04:11:38 52° E 04:15:14 10° S
Spot 2 3.9 04:08:05 10° N 04:12:08 63° WNW 04:12:30 60° W
SKYMED 2 3.8 04:08:01 10° SSE 04:12:20 71° ENE 04:16:41 10° N
Cosmos 1500 Rocket 3.4 04:09:19 10° NNW 04:13:46 72° W 04:18:09 10° S
Cosmos 1727 Rocket 3.9 04:07:41 10° S 04:13:53 86° W 04:20:07 10° N
STARLINK-1129 3.5 04:16:07 51° N 04:16:07 51° N 04:19:19 10° E
Cosmos 2173 Rocket 4.1 04:10:38 10° N 04:16:59 79° E 04:23:12 10° SSE
STARLINK-1134 3.4 04:18:28 51° N 04:18:35 52° N 04:21:50 10° E
Cosmos 1603 3.9 04:13:19 11° SSW 04:18:47 74° ESE 04:24:28 10° NNE
Cosmos 1339 Rocket 4.5 04:15:29 23° SW 04:19:11 54° WNW 04:25:13 10° N
Cosmos 1656 Rocket 3.8 04:13:44 10° NNW 04:19:27 79° ENE 04:25:09 10° SSE
STARLINK-1135 3.4 04:20:52 51° NNW 04:21:06 52° N 04:24:21 10° E
Cosmos 1943 3.6 04:17:13 10° SSW 04:22:45 63° ESE 04:28:20 10° NE
STARLINK-1141 3.4 04:23:07 50° NNW 04:23:26 53° N 04:26:42 10° E
Aureole 2 Rocket 3.7 04:25:19 24° S 04:25:19 24° S 04:26:47 10° S
STARLINK-1140 3.4 04:25:23 48° NNW 04:25:49 53° N 04:29:04 10° E
Cosmos 1743 Rocket 3.6 04:22:06 10° NNW 04:26:18 49° W 04:30:29 10° SSW
CZ-4B R/B 4.0 04:22:05 10° N 04:26:23 68° WNW 04:30:00 15° SSW
Cosmos 2263 4.1 04:21:46 10° NW 04:27:25 64° WSW 04:32:58 10° SSE
STARLINK-1156 3.4 04:27:38 47° NNW 04:28:09 53° N 04:31:25 10° E
STARLINK-1149 3.1 04:28:56 51° N 04:28:57 51° N 04:31:40 10° E
Okean O Rocket 3.7 04:25:39 10° NE 04:29:30 29° E 04:33:19 10° SSE
STARLINK-1118 3.6 04:29:28 35° SSE 04:29:40 36° SSE 04:32:08 10° E
STARLINK-1148 3.4 04:29:54 45° NW 04:30:32 54° N 04:33:48 10° E
STARLINK-1153 3.1 04:31:48 49° NNW 04:32:07 52° N 04:34:59 10° E
STARLINK-1180 3.1 04:32:01 48° NNW 04:32:20 52° N 04:35:13 10° E
STARLINK-1174 3.1 04:32:28 48° NNW 04:32:48 52° N 04:35:41 10° E
STARLINK-1158 3.4 04:32:09 43° NW 04:32:52 55° N 04:36:09 10° E
STARLINK-1139 3.1 04:32:42 48° NNW 04:33:03 52° N 04:35:55 10° E
STARLINK-1133 3.1 04:32:53 48° NNW 04:33:14 52° N 04:36:07 10° E
STARLINK-1151 3.1 04:33:07 48° NNW 04:33:29 52° N 04:36:22 10° E
Cosmos 2100 Rocket 3.9 04:27:51 10° NNW 04:34:07 76° W 04:40:15 10° S
STARLINK-1160 3.1 04:33:46 47° NNW 04:34:09 52° N 04:37:02 10° E
STARLINK-1161 3.1 04:33:58 47° NNW 04:34:22 52° N 04:37:15 10° E
STARLINK-1145 3.1 04:34:12 47° NNW 04:34:36 52° N 04:37:29 10° E
SJ-12 4.2 04:30:40 10° NNE 04:34:48 71° ESE 04:38:56 10° S
STARLINK-1172 3.1 04:34:24 47° NNW 04:34:49 52° N 04:37:42 10° E
STARLINK-1182 3.1 04:34:50 47° NNW 04:35:16 53° N 04:38:09 10° E
STARLINK-1164 3.1 04:35:03 46° NNW 04:35:30 53° N 04:38:23 10° E
STARLINK-1168 3.1 04:35:17 46° NNW 04:35:44 53° N 04:38:37 10° E
Shenzhou-11 Module 4.2 04:35:31 13° S 04:35:58 13° SSE 04:37:17 10° SE
NOSS 2-1 (E) 4.0 04:35:42 31° NW 04:36:13 32° NNW 04:39:59 10° NNE
STARLINK-1183 3.1 04:35:55 46° NNW 04:36:24 53° N 04:39:17 10° E
STARLINK-1181 3.1 04:36:08 46° NNW 04:36:37 53° N 04:39:30 10° E
USA 215 3.7 04:30:55 10° ENE 04:37:13 52° N 04:41:24 22° WNW
STARLINK-1196 3.1 04:36:47 45° NNW 04:37:18 53° N 04:40:11 10° E
STARLINK-1186 3.1 04:37:12 45° NNW 04:37:44 53° N 04:40:38 10° E
STARLINK-1185 3.1 04:37:27 44° NNW 04:38:00 53° N 04:40:52 10° E
ADEOS 4.3 04:33:34 10° N 04:38:11 32° WNW 04:39:45 27° W
STARLINK-1175 3.1 04:37:39 44° NNW 04:38:12 54° N 04:41:04 10° E
STARLINK-1147 3.1 04:37:52 44° NW 04:38:26 54° N 04:41:19 10° E
STARLINK-1146 3.1 04:38:04 44° NW 04:38:38 54° N 04:41:32 10° E
STARLINK-1152 3.1 04:38:18 44° NW 04:38:53 54° N 04:41:47 10° E
STARLINK-1132 3.0 04:38:36 46° NNW 04:39:05 55° NNE 04:41:51 10° E
STARLINK-1195 3.1 04:38:30 43° NW 04:39:06 54° N 04:41:59 10° E
STARLINK-1137 3.1 04:38:44 43° NW 04:39:19 54° N 04:42:13 10° E
STARLINK-1142 3.1 04:38:57 43° NW 04:39:33 54° N 04:42:27 10° E
Cosmos 2333 Rocket 4.3 04:37:44 10° NW 04:39:41 12° NNW 04:41:48 10° N
STARLINK-1127 3.1 04:39:09 43° NW 04:39:46 54° N 04:42:39 10° E
STARLINK-1184 3.1 04:39:22 43° NW 04:40:00 54° N 04:42:53 10° E
STARLINK-1193 3.1 04:39:36 42° NW 04:40:13 54° N 04:43:06 10° E
STARLINK-1194 3.1 04:39:48 42° NW 04:40:27 54° N 04:43:20 10° E
Cosmos 1140 Rocket 3.7 04:35:17 10° SSW 04:40:31 75° ESE 04:45:47 10° NNE
Meteor 2-3 Rocket 4.2 04:35:21 10° NNW 04:40:35 37° W 04:45:51 10° SSW
STARLINK-1150 3.0 04:40:49 44° NW 04:41:23 56° NNE 04:44:09 10° E
Cosmos 407 Rocket 3.4 04:36:41 10° SSW 04:42:01 81° WNW 04:47:20 10° NNE
Cosmos 1862 3.6 04:38:04 10° N 04:42:03 70° ENE 04:46:00 10° SSE
STARLINK-1163 3.0 04:42:02 43° NW 04:42:39 56° NNE 04:45:26 10° E
Cosmos 1842 Rocket 4.0 04:40:30 23° SW 04:42:44 40° WNW 04:46:59 10° N
Cosmos 1000 Rocket 4.5 04:37:25 10° S 04:43:36 89° ESE 04:49:53 10° N
STARLINK-1177 2.9 04:43:44 41° NW 04:44:24 57° NNE 04:47:11 10° E
STARLINK-1173 2.9 04:43:46 41° NW 04:44:27 57° NNE 04:47:14 10° E
Cosmos 1459 Rocket 3.9 04:38:36 10° NNW 04:44:44 70° W 04:50:57 10° S
GEOS 3 Rocket 3.7 04:39:33 10° NE 04:44:53 86° SE 04:50:15 10° SW
STARLINK-1167 2.9 04:44:15 41° NW 04:44:56 57° NNE 04:47:43 10° E
Cosmos 921 Rocket 3.2 04:41:27 10° NNW 04:45:45 48° WSW 04:49:56 10° S
Cosmos 1484 Rocket 2.8 04:42:22 10° N 04:46:16 58° WNW 04:50:11 10° SSW
BREEZE M DEB (TANK) 3.2 04:45:29 31° W 04:47:01 74° S 04:54:59 10° ESE
USA 116 3.0 04:46:41 10° SSE 04:49:49 85° WSW 04:52:57 10° NNW
STARLINK-1136 2.9 04:48:59 36° NW 04:49:52 60° NNE 04:52:39 10° E
Cosmos 2061 Rocket 4.0 04:45:10 10° N 04:51:30 84° W 04:57:43 10° S
Cosmos 1340 4.2 04:48:45 10° N 04:52:18 38° ENE 04:55:50 10° SE
STARLINK-1170 2.7 04:53:23 35° NW 04:54:16 61° NNE 04:56:53 10° E
STARLINK-1070 3.1 04:54:21 24° SW 04:55:52 59° SSE 04:58:47 10° ENE
STARLINK-1124 2.8 04:54:42 27° SW 04:56:06 69° SSE 04:59:02 10° ENE
STARLINK-1066 3.1 04:54:55 24° SW 04:56:27 60° SSE 04:59:21 10° ENE
STARLINK-1081 3.1 04:55:09 24° SW 04:56:42 60° SSE 04:59:36 10° ENE
STARLINK-1069 3.0 04:55:34 24° SW 04:57:08 60° SSE 05:00:01 10° ENE
STARLINK-1085 3.0 04:55:46 23° SW 04:57:20 60° SSE 05:00:14 10° ENE
STARLINK-1086 3.0 04:56:03 23° SW 04:57:37 61° SSE 05:00:32 10° ENE
Cosmos 1725 Rocket 4.1 04:51:20 10° N 04:57:39 87° E 05:03:56 10° S
STARLINK-1095 3.0 04:56:13 23° SW 04:57:48 61° SSE 05:00:42 10° ENE
STARLINK-1077 3.0 04:56:27 23° SW 04:58:02 61° SSE 05:00:56 10° ENE
STARLINK-1075 3.0 04:56:39 23° SW 04:58:15 61° SSE 05:01:09 10° ENE
STARLINK-1093 3.0 04:56:52 23° SW 04:58:29 62° SSE 05:01:23 10° ENE
STARLINK-1104 4.4 04:55:03 11° SW 04:58:43 47° SSE 05:02:40 10° ENE
STARLINK-1074 3.0 04:57:06 23° SW 04:58:44 62° SSE 05:01:38 10° ENE
STARLINK-1087 3.0 04:57:17 23° SW 04:58:55 62° SSE 05:01:49 10° ENE
STARLINK-1088 3.0 04:57:30 23° SW 04:59:07 62° SSE 05:02:01 10° ENE
STARLINK-1115 3.0 04:57:44 22° SW 04:59:22 62° SSE 05:02:17 10° ENE
STARLINK-1076 3.0 04:57:57 22° SW 04:59:36 63° SSE 05:02:31 10° ENE
STARLINK-1092 3.0 04:58:11 22° SW 04:59:51 63° SSE 05:02:45 10° ENE
STARLINK-1080 3.0 04:58:22 22° SW 05:00:02 63° SSE 05:02:57 10° ENE
Cosmos 1633 Rocket 3.3 04:55:51 10° N 05:00:15 72° E 05:04:37 10° SSE
Cosmos 2221 3.1 04:56:38 11° SW 05:00:15 33° WNW 05:04:12 10° N
STARLINK-1090 3.0 04:58:36 22° SW 05:00:17 63° SSE 05:03:12 10° ENE
COSMO-SKYMED 1 3.0 04:56:24 10° SSW 05:00:29 40° W 05:04:36 10° NNW
STARLINK-1089 3.0 04:58:51 22° SW 05:00:33 64° SSE 05:03:28 10° ENE
STARLINK-1107 3.0 04:59:01 22° SW 05:00:42 64° SSE 05:03:37 10° ENE
STARLINK-1109 3.0 04:59:14 22° SW 05:00:56 64° SSE 05:03:51 10° ENE
STARLINK-1091 2.9 04:59:29 22° SW 05:01:11 64° SSE 05:04:06 10° ENE
Cosmos 614 Rocket 4.1 04:56:17 10° SW 05:01:20 53° WNW 05:06:27 10° NNE
STARLINK-1072 3.0 04:59:38 22° SW 05:01:21 64° SSE 05:04:15 10° ENE
STARLINK-1096 2.9 04:59:53 22° SW 05:01:35 65° SSE 05:04:30 10° ENE
STARLINK-1079 2.9 05:00:06 21° SW 05:01:51 65° SSE 05:04:45 10° ENE
STARLINK-1116 2.9 05:00:20 21° SW 05:02:04 65° SSE 05:04:59 10° ENE
STARLINK-1094 2.9 05:00:48 21° SW 05:02:34 66° SSE 05:05:29 10° ENE
STARLINK-1117 2.9 05:00:58 21° SW 05:02:44 66° SSE 05:05:38 10° ENE
STARLINK-1078 2.9 05:01:12 21° SW 05:02:58 66° SSE 05:05:53 10° ENE
STARLINK-1108 2.9 05:01:25 21° SW 05:03:12 66° SSE 05:06:07 10° ENE
STARLINK-1071 2.9 05:01:37 21° SW 05:03:24 67° SSE 05:06:18 10° ENE
Cosmos 2123 Rocket 4.2 04:57:09 10° S 05:03:28 79° E 05:09:46 10° NNE
STARLINK-1144 4.3 04:59:40 11° SW 05:03:32 51° SSE 05:07:31 10° ENE
STARLINK-1110 2.9 05:01:52 20° SW 05:03:41 67° SSE 05:06:36 10° ENE
Cosmos 1346 Rocket 4.1 04:59:57 10° N 05:03:41 42° ENE 05:07:23 10° SE
Cosmos 1666 Rocket 3.5 04:59:16 10° N 05:03:45 88° W 05:08:09 10° S
Cosmos 2237 Rocket 4.0 05:01:42 12° NW 05:03:57 15° NNW 05:07:01 10° N
METEOR-M 4.1 04:58:41 10° NNE 05:04:01 74° WNW 05:09:20 10° SSW
STARLINK-1122 2.9 05:02:16 20° SW 05:04:06 67° SSE 05:07:01 10° ENE
STARLINK-1126 2.9 05:02:29 20° SW 05:04:18 68° SSE 05:07:14 10° ENE
STARLINK-1082 2.9 05:02:43 20° SW 05:04:33 68° SSE 05:07:28 10° ENE
STARLINK-1100 2.9 05:02:55 20° SW 05:04:46 68° SSE 05:07:41 10° ENE
STARLINK-1162 3.1 05:03:01 22° WNW 05:04:58 67° NNE 05:08:13 10° E
STARLINK-1083 2.9 05:03:08 20° SW 05:04:59 68° SSE 05:07:54 10° ENE
STARLINK-1125 2.9 05:03:21 20° SW 05:05:13 69° SSE 05:08:08 10° ENE
PSLV R/B 3.8 05:03:04 10° N 05:06:44 52° WNW 05:10:24 10° SSW
PAYLOAD B 4.3 05:01:21 10° NNE 05:06:59 84° ESE 05:12:32 10° SSW
STARLINK-1157 3.1 05:05:01 21° WNW 05:07:03 68° NNE 05:10:17 10° E
Cosmos 1190 Rocket 4.0 05:01:52 10° SW 05:07:06 61° WNW 05:12:24 10° NNE
STARLINK-1128 4.2 05:04:15 10° SW 05:08:11 55° SSE 05:12:09 10° ENE
STARLINK-1103 4.2 05:04:24 10° SW 05:08:24 54° SSE 05:12:24 10° ENE
STARLINK-1159 3.1 05:07:10 20° WNW 05:09:19 70° NNE 05:12:33 10° E
COSMOS 2455 4.1 05:03:51 10° NNW 05:09:29 39° NE 05:15:05 10° ESE
NOSS 3-4 (A) 4.4 05:03:36 10° NW 05:10:16 56° NE 05:17:38 10° ESE
NOSS 3-4 (C) 4.4 05:03:42 10° NW 05:10:22 55° NE 05:17:43 10° ESE
Cosmos 1238 Rocket 3.8 05:04:37 10° NNW 05:10:40 58° W 05:15:48 10° S
Cosmos 1802 Rocket 4.1 05:04:24 10° NNW 05:10:41 56° W 05:16:55 10° SSW
CZ-4C R/B 3.8 05:07:04 12° WNW 05:11:29 26° N 05:17:13 10° NE
STARLINK-1171 3.1 05:09:25 19° WNW 05:11:38 71° NNE 05:14:53 10° ESE
STARLINK-1113 4.1 05:08:47 10° SW 05:12:45 58° SSE 05:16:45 10° ENE
STARLINK-1101 4.1 05:09:10 10° SW 05:13:11 57° SSE 05:17:13 10° ENE
STARLINK-1155 3.1 05:11:30 18° WNW 05:13:49 72° NNE 05:17:04 10° ESE
Meteor 1-31 Rocket 4.0 05:11:41 10° NNW 05:14:36 21° WNW 05:16:45 14° WSW
Cosmos 468 Rocket 4.2 05:10:34 10° NNW 05:15:55 79° ENE 05:21:13 10° SSE
BREEZE-M DEB (TANK) 4.3 05:12:02 10° SW 05:15:59 26° SSE 05:18:13 10° E
DMSP B5D1-3 4.5 05:11:00 10° S 05:16:03 67° WSW 05:21:10 10° NNW
STARLINK-1166 3.0 05:13:43 17° WNW 05:16:07 74° NNE 05:19:22 10° ESE
Cosmos 1864 Rocket 4.4 05:10:26 10° NNW 05:16:32 70° W 05:22:39 10° S
SL-08 R/B 4.4 05:10:34 10° NNW 05:16:41 68° W 05:22:42 10° S
STARLINK-1179 2.4 05:15:39 18° WNW 05:17:28 83° NNE 05:20:08 10° ESE
STARLINK-1119 4.0 05:13:31 10° SW 05:17:30 61° SSE 05:21:30 10° ENE
STARLINK-1176 2.4 05:16:11 18° WNW 05:18:00 84° NNE 05:20:41 10° ESE
STARLINK-1165 3.0 05:15:52 16° WNW 05:18:22 76° NNE 05:21:38 10° ESE
STARLINK-1102 4.0 05:14:29 10° SW 05:18:30 61° SSE 05:22:31 10° ENE
STARLINK-1169 3.0 05:18:02 15° WNW 05:20:37 77° NNE 05:23:52 10° ESE
CZ-4B R/B 3.9 05:18:29 10° NNW 05:21:19 21° WNW 05:24:05 10° WSW
Cosmos 1943 Rocket 3.6 05:19:34 12° WNW 05:21:35 15° W 05:24:34 10° SW
STARLINK-1114 3.9 05:18:01 10° SW 05:22:03 65° SSE 05:26:05 10° ENE
STARLINK-1178 3.0 05:20:11 14° WNW 05:22:52 79° NNE 05:26:08 10° ESE
STARLINK-1111 3.9 05:19:06 10° SW 05:23:07 65° SSE 05:27:10 10° ENE
Cosmos 676 Rocket 4.0 05:19:30 10° SSW 05:24:48 70° WNW 05:30:10 10° NNE
STARLINK-1120 3.0 05:22:15 14° WNW 05:25:02 81° NNE 05:28:18 10° ESE
Lacrosse 5 3.7 05:24:33 11° W 05:26:12 12° WSW 05:28:16 10° SW
STARLINK-1130 (DARKSAT) 3.8 05:22:54 10° SW 05:26:56 68° SSE 05:30:57 10° ENE
STARLINK-1131 3.0 05:24:27 13° WNW 05:27:19 83° NNE 05:30:35 10° ESE
STARLINK-1073 3.9 05:23:42 10° SW 05:27:46 68° SSE 05:31:52 10° ENE
STARLINK-1190 3.0 05:26:42 12° WNW 05:29:40 85° NNE 05:32:55 10° ESE
STARLINK-1084 3.8 05:27:19 10° WSW 05:31:22 72° SSE 05:35:26 10° ENE
ATLAS CENTAUR R/B 3.3 05:28:36 10° WNW 05:31:33 17° NNW 05:34:22 10° NNE
STARLINK-1121 3.8 05:28:34 10° WSW 05:32:39 72° SSE 05:36:46 10° ENE
ALOS 2.8 05:28:28 10° N 05:32:44 36° WNW 05:37:00 10° SW
Cosmos 1315 Rocket 3.6 05:29:11 10° S 05:33:02 55° E 05:36:54 10° NNE
Cosmos 2016 Rocket 4.3 05:27:48 10° NNW 05:33:41 45° W 05:39:36 10° SSW
Cosmos 1606 3.4 05:31:25 10° S 05:35:09 58° E 05:38:54 10° NNE
Cosmos 1980 Rocket 4.3 05:32:19 10° N 05:36:26 20° NE 05:40:31 10° E
CZ-2C R/B 4.1 05:34:07 10° NNW 05:37:06 16° NW 05:40:03 10° W
STARLINK-1106 3.8 05:33:30 10° WSW 05:37:36 76° SSE 05:41:43 10° ENE
Cosmos 841 Rocket 4.1 05:36:20 10° NNW 05:41:32 63° ENE 05:46:44 10° SE
Cosmos 1400 Rocket 3.1 05:38:37 10° SSW 05:42:31 46° WNW 05:46:30 10° N
FENGYUN 3A 4.2 05:37:31 10° N 05:42:31 38° WNW 05:47:30 10° SW
STARLINK-1112 3.7 05:38:27 10° WSW 05:42:33 80° SSE 05:46:41 10° ENE
NOAA 6 4.1 05:37:55 10° N 05:43:02 60° WNW 05:48:05 10° SSW
Cosmos 1633 4.3 05:41:37 10° NW 05:43:37 14° W 05:45:37 10° WSW
Cosmos 1470 Rocket 3.6 05:39:10 10° NNW 05:43:38 75° W 05:48:06 10° S
Sich 1 4.0 05:40:17 10° NNW 05:43:51 26° W 05:47:26 10° SW
ATLAS 2AS CENTAUR R/B 3.0 05:37:28 10° NW 05:45:16 83° NE 05:52:22 10° SE
ISS -0.6 05:43:50 10° SSE 05:45:33 13° SE 05:47:17 10° ESE
H-2A R/B 4.2 05:43:16 10° NNW 05:45:54 16° WNW 05:48:34 10° W
Cosmos 192 4.4 05:42:07 10° NNW 05:46:57 59° WSW 05:51:45 10° S
Meteor 2-20 4.5 05:41:32 10° S 05:47:37 85° W 05:53:45 10° N
SL-16 R/B 3.9 05:44:25 10° WNW 05:47:52 16° NNW 05:51:18 10° N
ADEOS Rocket 3.4 05:41:52 10° S 05:48:02 52° W 05:54:56 10° NNW
Cosmos 1763 Rocket 3.6 05:43:57 10° NNW 05:49:16 71° WSW 05:54:33 10° SSE
Cosmos 2233 Rocket 4.1 05:44:48 10° NNW 05:50:59 62° W 05:57:10 10° S
Cosmos 2084 3.7 05:46:55 10° WSW 05:51:22 57° NW 05:55:48 10° NE
